Starlink 11677

operational
NORAD ID: 63751 Int'l Des: 2025-089 Owner: SPXS Country: US Constellation: starlink
LEOCIRCULAR

关于 Starlink 11677

正在加载描述...

实时位置

正在加载3D地球...

即将过境

高度历史

Altitude vs Time

uPlot chart will show altitude changes over time

两行轨道根数

1 63751U 25089A 25305.83463732 .00319063 00000-0 23886-2 0 9998
2 63751 42.9998 343.2355 0000552 340.9830 19.1017 15.70910121 30020
Epoch: Nov 1, 2025 • Age: 36 hours

当前状态

高度 366.8 km
速度 7.69 km/s
星下点 -43.09°S, 73.41°E
发射日期 Apr 29, 2025
运行时间 0.5 years
类型 internet

技术详情

分类 Payload
质量 960.00 kg
干质量 910.00 kg
总质量 960.00 kg
长度 0.30 m
直径 4.10 m
跨度 29.00 m
形状 Box + pan
制造商 SPXS
平台类型 Starlink V2MD
阶段状态 In Orbit
所有者/国家 SPXS/US

大型星座

Loading constellations...